Location: Pinhead Observatory
(34.4473°N, 118.1985°W)
Time: 01:56:36
(UTC-08:00)

Daily predictions for brighter satellites

Satellite Brightness Start Highest point End
(mag) Time Altitude Azimuth Time Altitude Azimuth Time Altitude Azimuth
Lacrosse 5 4.4 04:10:49 12° NNE 04:10:49 12° NNE 04:11:12 10° NNE
H-2A ROCKET BODY 4.2 04:15:26 31° SSW 04:17:31 35° S 04:39:52 10° SE
Cosmos 1610 Rocket 4.5 04:13:45 10° S 04:19:55 78° E 04:26:11 10° N
Sakura Rocket 4.4 04:20:40 52° SSW 04:21:26 54° S 04:29:39 10° E
Feng Yun 1-1 Rocket 4.3 04:16:44 10° NNE 04:24:04 43° S 04:27:39 10° S
BREEZE-M DEB (TANK) 3.7 04:35:04 65° NNW 04:35:04 65° NNW 04:45:17 10° NE
Cosmos 2056 Rocket 3.7 04:37:43 56° SSW 04:37:43 56° SSW 04:41:47 10° S
USA 215 3.7 04:30:52 10° NE 04:37:18 60° SE 04:43:42 10° SSW
Thor Agena Rocket 3.6 04:36:04 10° S 04:40:18 59° SSW 04:40:18 59° SSW
Meteor 2-13 Rocket 4.4 04:35:49 10° S 04:41:58 83° E 04:48:08 10° N
Meteor 1-19 Rocket 4.4 04:42:53 14° N 04:47:51 74° E 04:53:33 10° SSE
Cosmos 1624 Rocket 4.4 04:50:23 45° SW 04:50:23 45° SW 04:54:37 10° S
Nadezhda 3 Rocket 4.0 04:51:16 10° N 04:57:40 89° ENE 05:04:01 10° S
Cosmos 2369 Rocket 2.1 04:55:40 29° NNW 04:58:42 87° ENE 05:04:23 10° SSE
Lacrosse 4 Rocket 3.8 04:56:07 10° N 04:59:05 19° NE 05:02:00 10° ESE
Meteor 1-11 Rocket 3.7 04:53:56 10° SSW 04:59:43 65° W 05:05:24 10° N
Cosmos 1025 Rocket 3.6 04:57:49 13° N 05:01:38 58° E 05:05:54 10° SSE
Cosmos 962 Rocket 4.4 04:59:39 10° S 05:05:50 82° W 05:12:07 10° N
Meteor 2-4 Rocket 3.8 05:03:31 10° N 05:09:09 81° E 05:14:55 10° S
Meteor 1-23 Rocket 4.5 05:03:49 10° N 05:09:20 68° E 05:14:53 10° SSE
Meteor 1-13 Rocket 4.4 05:08:19 20° NNW 05:12:18 54° W 05:17:59 10° S
Meteor 1-5 Rocket 4.2 05:07:56 10° S 05:13:16 75° E 05:18:33 10° NNE
NOSS 3-1 (C) 3.9 05:14:12 10° SSW 05:19:47 60° ESE 05:25:54 10° NE
Atlas Centaur 2 4.2 05:12:14 10° SW 05:19:53 38° SSE 05:26:48 10° E
Cosmos 1943 3.9 05:21:05 30° WNW 05:21:41 31° WNW 05:26:38 10° N
Tiangong 2 1.3 05:24:07 46° NNW 05:24:45 59° NNE 05:27:51 10° ESE
Cosmos 1943 Rocket 2.5 05:19:29 10° NNW 05:24:58 65° ENE 05:30:25 10° SSE
Cosmos 1452 Rocket 3.5 05:21:46 18° NNW 05:25:38 64° WSW 05:30:50 10° S
Cosmos 2341 Rocket 4.1 05:21:22 10° SSW 05:27:28 53° W 05:33:35 10° N
CSL-04 DEB 4.3 05:25:41 10° N 05:29:49 79° WNW 05:34:04 10° SSW
Cosmos 1544 Rocket 3.5 05:26:02 10° S 05:30:23 84° E 05:34:48 10° N
Cosmos 158 Rocket 4.2 05:26:37 10° S 05:31:52 78° ESE 05:37:16 10° NNE
COSMO-SKYMED 1 2.8 05:34:34 10° S 05:38:45 48° W 05:42:58 10° NNW
Cosmos 1461 2.9 05:34:34 10° SW 05:38:54 63° WNW 05:43:03 10° NNE
Cosmos 1536 3.9 05:36:11 10° SW 05:44:06 - NNW 05:39:00 23° W
IDEFIX/ARIANE 42P 4.2 05:34:57 10° NNE 05:39:46 37° E 05:44:34 10° SSE
SL-24 R/B 4.3 05:42:09 10° N 05:46:58 56° WNW 05:51:12 10° SSW
Cosmos 1500 4.3 05:43:30 10° SSE 05:47:05 46° E 05:50:43 10° NNE
ASTRO E2 3.2 05:45:17 16° WSW 05:48:16 54° S 05:52:14 10° ESE
CZ-3 R/B 2.2 05:37:38 10° WSW 05:49:16 46° S 05:53:00 10° ESE
Okean 2 3.4 05:45:19 10° NNW 05:49:26 59° W 05:53:29 10° S
CZ-2C R/B 3.5 05:45:25 10° NNE 05:50:21 49° E 05:55:08 10° S
PAYLOAD A 4.3 05:45:37 10° NNE 05:51:04 79° ESE 05:56:29 10° S
BREEZE M DEB (TANK) 3.8 05:37:41 14° WNW 05:52:10 73° SW 05:55:50 10° SE
USA 229 DEB 4.3 05:47:14 10° WSW 05:53:18 33° NW 05:59:29 10° NNE
USA 229 4.3 05:47:20 10° WSW 05:53:24 33° NW 05:59:35 10° NNE
Meteor 1-28 Rocket 3.3 05:50:34 10° S 05:54:17 55° W 05:58:02 10° NNW
Cosmos 839 Rocket 4.1 05:50:51 10° NNW 05:57:15 85° ENE 06:03:25 10° SSE
CZ-4 R/B 1.4 05:56:04 10° NNE 05:59:58 82° ESE 06:03:50 10° S
Cosmos 1892 Rocket 3.8 05:56:15 10° NNW 06:00:35 50° W 06:04:55 10° SSW
Cosmos 1340 3.1 05:58:03 10° NNW 06:01:36 40° W 06:05:09 10° SSW
SMAP 3.5 06:01:28 10° NNE 06:06:07 69° ESE 06:10:43 10° S
NOSS 3-1 (A) 3.3 06:01:57 10° SW 06:07:42 80° WNW 06:14:03 10° NNE
Meteor 1-12 Rocket 4.2 06:02:19 10° SSW 06:07:57 76° W 06:13:37 10° N
Cosmos 1626 Rocket 4.0 06:06:37 10° N 06:11:01 66° E 06:15:19 10° SSE
SL-8 Rocket 4.4 06:05:35 10° SW 06:11:21 39° WNW 06:17:07 10° N
CSL-04 Rocket 4.2 06:11:55 10° N 06:16:55 36° WNW 06:21:52 10° SW
Cosmos 1455 Rocket 3.7 06:15:17 10° SW 06:19:08 32° W 06:23:02 10° NNW
USA 215 3.8 06:14:11 10° NNE 06:20:02 37° NW 06:25:53 10° W
ATLAS CENTAUR R/B 4.2 06:20:12 10° SE 06:20:55 12° ESE 06:21:42 10° E
Cosmos 2251 Rocket 3.5 06:17:37 10° SSW 06:22:58 76° WNW 06:28:22 10° NNE
Ariane Rocket 4.1 06:19:24 10° NNW 06:23:19 23° WNW 06:27:13 10° WSW
COSMOS 2487 4.0 06:21:50 10° S 06:25:13 42° ESE 06:28:38 10° NNE
Cosmos 2366 rocket 4.4 06:19:46 10° SSW 06:25:40 42° W 06:31:39 10° N
AQUARIUS 4.2 06:21:47 10° N 06:26:15 67° WNW 06:30:42 10° SSW
